Tracking 19795 objects as of 20-Jul-2019
HD Live streaming from Space Station
objects crossing your sky now

SL-18 DEB

Track SL-18 DEB now!
10-day predictions


NORAD ID: 29030
Int'l Code: 1993-014AX
Perigee: 606.1 km
Apogee: 694.5 km
Inclination: 75.7 °
Period: 97.6 minutes
Semi major axis: 7021 km
RCS: 0.0108 m2 (small)
Launch date: March 25, 1993
Source: Commonwealth of Independent States (former USSR) (CIS)
Launch site: PLESETSK MISSILE AND SPACE COMPLEX (PKMTR)

Note: This is SATELLITE DEBRIS
aabbcc
Your satellite tracking list
Your tracking list is empty




NASA's NSSDC Master Catalog

Two Line Element Set (TLE):
1 29030U 93014AX  19199.84872866 +.00001684 +00000-0 +24170-3 0  9995
2 29030 075.7429 031.4838 0062994 282.9057 076.5095 14.75629995707878
Source of the keplerian elements: AFSPC